Simultaneous Nadir Overpasses (SNOs) Predictions

Prediction of SNOs between NOAA-19 and TERRA Satellite Orbit:

Table of predicted SNOs for the next 14.0 days since TLE Epoch: 8/17/2024
Index Date (NOAA-19) Time (NOAA-19) Lat,Lon (NOAA-19) SZA (NOAA-19 ) Date (TERRA) Time (TERRA) Lat,Lon (TERRA) SZA (TERRA ) Distance(km) Time Diff (sec)
1 08/17/2024 17:55:36 -75.84, 90.55 117.32 08/17/2024 17:56:35 -75.84, 90.52 117.33 1.07 59
2 08/17/2024 18:46:22 76.45, -99.94 63.31 08/17/2024 18:45:43 76.46, -99.91 63.31 0.87 39
3 08/19/2024 21:45:18 76.19,-145.61 63.73 08/19/2024 21:45:15 76.17,-145.70 63.72 2.99 3
4 08/22/2024 00:44:19 75.67, 167.91 63.93 08/22/2024 00:44:50 75.68, 167.96 63.94 1.49 31
5 08/22/2024 01:35:01 -76.44, -22.06 115.30 08/22/2024 01:33:56 -76.43, -22.13 115.31 2.17 65
6 08/24/2024 03:43:18 75.22, 121.79 64.22 08/24/2024 03:44:23 75.23, 121.84 64.22 1.45 65
7 08/24/2024 04:34:01 -75.99, -68.39 115.03 08/24/2024 04:33:29 -75.99, -68.36 115.03 0.92 32
8 08/26/2024 07:32:58 -75.65,-114.23 114.63 08/26/2024 07:32:59 -75.65,-114.24 114.63 0.42 1
9 08/28/2024 10:31:57 -75.19,-160.36 114.33 08/28/2024 10:32:30 -75.19,-160.35 114.33 0.19 33
10 08/28/2024 11:22:37 75.95, 9.43 66.43 08/28/2024 11:21:35 75.94, 9.40 66.43 1.10 62
11 08/30/2024 13:30:58 -74.62, 153.28 114.12 08/30/2024 13:32:02 -74.63, 153.36 114.12 2.60 64



Historial Predications of SNOs between NOAA-19 and TERRA
